Notices

What's New in latest Release from April 7th, 2021:

- Updated Glossary, including Speed of Maximum Gust, and Total Hourly Precipitation

- Updated national and regional climate services offices contacts and prices information

- Addition of station inventory lists for 1981-2010, 1971-2000, and 1961-1990 Normals.

If you haven't already, please take our survey and provide feedback about our website: https://eccc.sondage-survey.ca/f/LanguageSelection.aspx?s=442ca660-fcf1-47c0-95a9-59707d6fd709

Hourly Data Report for November 22, 2019

MIRAMICHI RCS
NEW BRUNSWICK
Current Station Operator: ECCC - MSC

47°00'34.000" N
65°27'54.000" W
33.00 m
8100989
71744
ACQ

Download Data

Hourly Data (November 2019)
Hourly Data Report for November 22, 2019
TIME
LST
Temp Definition
°C
Dew Point Definition
°C
Rel Hum Definition
%
Precip. Amount Definition
mm

Wind Dir Definition
10's deg

Wind Spd Definition
km/h
Visibility Definition
km
Stn Press Definition
kPa
Hmdx Definition


Wind Chill Definition


Weather Definition


00:00 -0.3 -2.2 87 0.0 26 8   100.99   -3 LegendNANA
01:00 -0.6 -2.0 90 0.0 26 7   100.92   -3 LegendNANA
02:00 -0.7 -2.1 90 0.0 24 8   100.87   -4 LegendNANA
03:00 -0.7 -2.2 90 0.0 24 6   100.86   -3 LegendNANA
04:00 -0.9 -2.2 91 0.0 21 5   100.79   -3 LegendNANA
05:00 -1.2 -2.2 93 0.0 22 5   100.73   -3 LegendNANA
06:00 -1.5 -2.3 94 0.0 17 6   100.61   -4 LegendNANA
07:00 -1.5 -2.2 95 0.0 19 9   100.58   -5 LegendNANA
08:00 -1.6 -2.5 94 0.0 18 8   100.49   -5 LegendNANA
09:00 -1.1 -2.4 91 0.0 17 9   100.38   -4 LegendNANA
10:00 -0.6 -2.4 88 0.0 17 8   100.26   -3 LegendNANA
11:00 -0.3 -1.8 89 0.0 17 10   100.13   -4 LegendNANA
12:00 0.0 -1.5 90 0.0 16 11   99.88   -4 LegendNANA
13:00 0.6 -0.8 90 0.0 16 11   99.74     LegendNANA
14:00 1.6 0.3 91 0.0 17 16   99.52     LegendNANA
15:00 2.2 1.2 93 0.0 16 21   99.35     LegendNANA
16:00 2.4 1.7 96 0.3 17 17   99.28     LegendNANA
17:00 2.5 2.0 96 1.0 18 11   99.15     LegendNANA
18:00 2.3 1.9 97 2.0 18 2   99.06     LegendNANA
19:00 1.5 1.3 98 0.7 12 4   98.92     LegendNANA
20:00 2.3 2.1 99 2.1 30 2   98.83     LegendNANA
21:00 3.2 2.4 94 0.6 25 14   98.75     LegendNANA
22:00 2.5 1.8 95 1.2 25 10   98.71     LegendNANA
23:00 2.1 1.4 95 1.0 24 13   98.64     LegendNANA

Notes on Data Quality.

Legend

  • E = Estimated
  • M = Missing
  • NA = Not Available*
  • [empty] = Indicates an unobserved value
Date modified: